DW3741 Weather Reports


time (UTC)temp
C
wind
direction
speed
KPH
gust
KPH
rain 1hr
cm
rain 24hr
cm
rain mn
cm
humidity
%
barometer
mb
20260507052648 7 38 1.6 6.4 0.00 0.13 0.00 83 1013.5
20260507052146 7 38 1.6 4.8 0.00 0.13 0.00 83 1013.6
20260507051640 7 32 3.2 4.8 0.00 0.13 0.00 83 1013.5
20260507051142 7 34 1.6 4.8 0.00 0.13 0.00 83 1013.5
20260507050645 7 35 1.6 4.8 0.00 0.15 0.00 83 1013.5
20260507050130 7 28 3.2 4.8 0.00 0.15 0.00 83 1013.4
20260507045629 7 29 1.6 4.8 0.00 0.15 0.00 83 1013.4
20260507045207 7 29 1.6 3.2 0.00 0.15 0.00 83 1013.4
20260507044208 8 32 1.6 4.8 0.00 0.15 0.00 83 1013.3
20260507043130 8 34 1.6 6.4 0.00 0.15 0.00 83 1013.3
20260507042134 8 34 1.6 6.4 0.00 0.15 0.00 82 1013.2
20260507035614 8 35 0.0 6.4 0.00 0.15 0.00 81 1013.0
20260507034605 8 39 1.6 8.0 0.00 0.15 0.00 81 1012.9
20260507033609 8 39 1.6 6.4 0.00 0.15 0.00 81 1013.0
20260507033110 8 38 1.6 6.4 0.00 0.15 0.00 81 1012.9
20260507032651 8 38 1.6 8.0 0.00 0.15 0.00 81 1012.9
20260507032110 8 42 1.6 9.7 0.00 0.15 0.00 80 1012.9
20260507031113 8 27 3.2 14.5 0.00 0.15 0.00 80 1012.8
20260507030121 8 43 1.6 9.7 0.00 0.15 0.00 80 1012.7
20260507025621 8 35 1.6 9.7 0.00 0.15 0.00 80 1012.6
20260507025121 8 22 3.2 8.0 0.00 0.15 0.00 80 1012.7
20260507022607 9 42 3.2 11.3 0.00 0.15 0.00 80 1012.6
20260507022104 9 42 3.2 11.3 0.00 0.15 0.00 80 1012.5
20260507021556 9 35 1.6 9.7 0.00 0.15 0.00 80 1012.4
20260507021055 9 18 3.2 8.0 0.00 0.15 0.00 80 1012.5
20260507013135 10 17 1.6 4.8 0.00 0.15 0.00 80 1012.3
20260507012557 10 34 0.0 4.8 0.00 0.15 0.00 80 1012.3
20260507012052 10 29 0.0 4.8 0.00 0.15 0.00 80 1012.2
20260507011547 10 31 1.6 4.8 0.00 0.15 0.00 79 1012.2
20260507004612 10 31 0.0 1.6 0.00 0.15 0.00 78 1012.1
20260507004156 10 31 0.0 3.2 0.00 0.15 0.00 77 1012.1
20260507003241 10 31 1.6 4.8 0.00 0.15 0.00 77 1012.1
20260507002742 10 29 1.6 4.8 0.00 0.15 0.00 77 1012.1
20260507001704 10 31 1.6 6.4 0.00 0.15 0.00 77 1012.0
20260506232916 10 36 0.0 4.8 0.00 0.15 0.15 76 1011.8
20260506225039 10 36 0.0 3.2 0.00 0.15 0.15 75 1011.7
20260506223509 10 36 0.0 6.4 0.00 0.15 0.15 75 1011.6
20260506222930 10 36 3.2 6.4 0.00 0.15 0.15 75 1011.6
20260506222431 10 36 3.2 8.0 0.00 0.15 0.15 75 1011.6
20260506220909 10 25 1.6 4.8 0.00 0.15 0.15 75 1011.5
20260506214244 10 29 3.2 8.0 0.00 0.15 0.15 75 1011.3
20260506213741 10 28 1.6 6.4 0.00 0.15 0.15 75 1011.2
20260506212217 10 28 1.6 11.3 0.00 0.15 0.15 75 1011.0
20260506211301 10 36 1.6 4.8 0.00 0.15 0.15 76 1011.8
20260506205603 11 27 1.6 6.4 0.00 0.15 0.15 75 1010.7
20260506202920 11 27 3.2 6.4 0.00 0.15 0.15 75 1010.4
20260506202424 11 24 1.6 4.8 0.00 0.15 0.15 74 1010.4
20260506201841 11 24 1.6 6.4 0.00 0.15 0.15 74 1010.3
20260506194915 11 28 4.8 20.9 0.00 0.15 0.15 73 1010.0
20260506193420 11 14 6.4 16.1 0.00 0.15 0.15 73 1009.9
20260506192919 11 31 6.4 17.7 0.00 0.15 0.15 74 1009.8
20260506192414 11 355 6.4 17.7 0.00 0.15 0.15 75 1009.8
20260506191303 11 25 3.2 9.7 0.00 0.15 0.15 76 1009.6
20260506190331 10 22 6.4 11.3 0.00 0.15 0.15 75 1009.5
20260506185335 10 27 6.4 16.1 0.00 0.15 0.15 77 1009.6
20260506184305 10 34 8.0 19.3 0.00 0.15 0.15 77 1009.6
20260506182806 10 24 4.8 11.3 0.00 0.15 0.15 78 1009.6
20260506182348 10 24 3.2 11.3 0.00 0.15 0.15 78 1009.7
20260506181311 10 17 8.0 17.7 0.00 0.15 0.15 78 1009.7
20260506180312 10 29 6.4 17.7 0.00 0.15 0.15 78 1009.7
20260506174258 10 28 3.2 14.5 0.00 0.15 0.15 79 1009.6
20260506172658 10 24 3.2 11.3 0.00 0.15 0.15 80 1009.6
20260506171624 10 22 3.2 9.7 0.00 0.15 0.15 79 1009.4
20260506171244 10 35 3.2 11.3 0.00 0.15 0.15 79 1009.5
20260506161712 10 14 9.7 17.7 0.00 0.15 0.15 76 1009.3
20260506161252 10 24 8.0 17.7 0.00 0.15 0.15 76 1009.2
20260506160219 11 24 6.4 17.7 0.00 0.15 0.15 75 1009.3
20260506153242 11 29 6.4 17.7 0.00 0.15 0.15 73 1009.1
20260506150743 11 28 4.8 11.3 0.00 0.15 0.15 72 1008.9
20260506145705 11 39 3.2 14.5 0.00 0.15 0.15 72 1008.9
20260506145246 11 36 4.8 16.1 0.00 0.15 0.15 72 1008.9
20260506142041 11 28 4.8 17.7 0.00 0.15 0.15 71 1008.8
20260506141537 11 41 6.4 17.7 0.00 0.15 0.15 71 1008.7
20260506140613 11 27 3.2 17.7 0.00 0.15 0.15 73 1008.8
20260506135621 11 28 4.8 11.3 0.00 0.15 0.15 74 1008.7
20260506134130 11 21 4.8 11.3 0.00 0.15 0.15 74 1008.6
20260506132632 11 17 6.4 16.1 0.00 0.15 0.15 74 1008.6
20260506125637 11 32 6.4 16.1 0.00 0.15 0.15 74 1008.5
20260506125130 11 35 6.4 16.1 0.00 0.15 0.15 74 1008.4
20260506124627 11 32 4.8 14.5 0.00 0.15 0.15 75 1008.4
20260506124119 10 35 6.4 9.7 0.00 0.15 0.15 74 1008.4
20260506123621 10 22 3.2 9.7 0.00 0.15 0.15 74 1008.3
20260506122136 10 21 3.2 9.7 0.00 0.15 0.15 76 1008.4
20260506114226 9 41 6.4 16.1 0.00 0.15 0.15 81 1008.3
20260506105212 9 25 8.0 14.5 0.00 0.15 0.15 87 1007.9
20260506100745 9 31 4.8 8.0 0.00 0.15 0.15 89 1007.6
20260506095220 9 340 3.2 11.3 0.00 0.15 0.15 90 1007.5
20260506092206 9 4 3.2 8.0 0.00 0.15 0.15 91 1007.4
20260506091213 8 336 3.2 11.3 0.00 0.15 0.15 91 1007.3
20260506073135 8 34 3.2 6.4 0.05 0.13 0.15 91 1007.3
20260506071649 8 18 1.6 4.8 0.05 0.13 0.15 91 1007.2
20260506071153 8 21 3.2 4.8 0.05 0.13 0.13 91 1007.1
20260506070614 8 11 1.6 4.8 0.03 0.10 0.13 91 1007.2
20260506061529 8 27 1.6 6.4 0.05 0.10 0.10 91 1007.3
20260506060537 8 36 1.6 6.4 0.08 0.03 0.08 91 1007.3